[[{"header":{"parameterUnit":"m.s-1","parameterCategory":1,"la1":30.2991,"la2":30.254,"lo1":-89.0895,"lo2":-89.0444,"dy":0.0017,"dx":0.0017,"nx":28,"ny":28,"refTime":"2025-09-04T03:00:00:Z","depth":0,"parameterNumber":2,"parameterNumberName":"U-component_of_WINDS"},"data":[0,0,0,0,0,0,0,0,0,0,0,0,0,0,0,0,0,0,0,0,0,0,0,0,0,0,0,0,0,0,0,0,0,0,0,0,0,0,0,0,0,0,0,0,0,0,0,0,0,0,0,0,0,0,0,0,0,0,-0.67,-0.67,0,-0.6711,-0.6711,-0.6711,-0.6693,-0.6692,-0.6692,-0.6691,-0.6704,-0.6705,-0.6706,0,0,0,0,0,0,0,0,0,0,0,0,0,-0.6666,-0.6666,-0.67,-0.67,-0.67,-0.6711,-0.6711,-0.6711,-0.6693,-0.6692,-0.6692,-0.6691,-0.6704,-0.6705,-0.6706,0,0,0,0,0,0,0,0,0,0,0,0,0,-0.6679,-0.6666,-0.67,-0.6692,-0.6692,-0.6711,-0.6711,-0.6711,-0.6693,-0.6692,-0.6691,-0.669,-0.6704,-0.6705,-0.6707,-0.6734,0,0,-0.6711,-0.6712,0,0,0,0,0,0,0,0,-0.6678,-0.668,-0.6693,-0.6693,-0.6692,-0.67,-0.6704,-0.6719,-0.6694,-0.6693,-0.6691,-0.669,-0.6704,-0.6705,-0.6709,-0.6735,-0.6736,-0.6711,-0.6712,-0.6713,-0.6713,0,0,0,0,0,0,0,-0.6677,-0.668,-0.6704,-0.6694,-0.6693,-0.6689,-0.669,-0.6707,-0.6704,-0.6693,-0.6691,-0.6693,-0.6703,-0.6708,-0.671,-0.6736,-0.6711,-0.6712,-0.6713,-0.6714,-0.6787,-0.6788,0,0,0,0,0,0,-0.6677,-0.6679,-0.6704,-0.6705,-0.6683,-0.6691,-0.6692,-0.6698,-0.6703,-0.6703,-0.6694,-0.6692,-0.6706,-0.6708,-0.671,-0.6744,-0.6713,-0.6714,-0.6715,-0.6785,-0.6787,-0.6788,0,0,0,0,0,0,-0.6676,-0.6679,-0.6704,-0.6692,-0.6694,-0.6692,-0.67,-0.6699,-0.6704,-0.6704,-0.6704,-0.6699,-0.6705,-0.6708,-0.6729,-0.6744,-0.6714,-0.6716,-0.6784,-0.6786,-0.6787,-0.6811,0,0,0,0,0,0,-0.6675,-0.6679,-0.6689,-0.6692,-0.6695,-0.6721,-0.6701,-0.67,-0.6706,-0.6704,-0.6709,-0.6709,-0.6705,-0.6727,-0.673,-0.6745,-0.6717,-0.6783,-0.6785,-0.6787,-0.6809,-0.6813,-0.6817,0,0,0,0,0,-0.6674,-0.6695,-0.669,-0.6693,-0.6707,-0.6722,-0.6724,-0.6719,-0.6707,-0.6718,-0.6718,-0.6709,-0.6742,-0.6729,-0.6733,-0.6749,-0.6782,-0.6784,-0.6787,-0.6807,-0.6813,-0.6817,0,0,0,0,0,0,-0.6695,-0.6696,-0.6689,-0.6712,-0.6717,-0.6719,-0.6732,-0.6724,-0.6733,-0.6731,-0.6725,-0.6726,-0.6748,-0.6751,-0.6736,-0.6777,-0.676,-0.6763,-0.6774,-0.6779,-0.6783,-0.6783,-0.6718,0,0,0,0,0,-0.6702,-0.6713,-0.6714,-0.6734,-0.6736,-0.6734,-0.674,-0.6736,-0.6741,-0.6743,-0.6745,-0.6752,-0.6764,-0.6772,-0.6783,-0.6809,-0.6811,-0.6822,-0.6826,-0.683,-0.6833,-0.6849,-0.6854,-0.6796,-0.6796,-0.6796,0,0,-0.6717,-0.6719,-0.6726,-0.6738,-0.6741,-0.6754,-0.6736,-0.675,-0.676,-0.6746,-0.6765,-0.6767,-0.6774,-0.6798,-0.6809,-0.6801,-0.6849,-0.6833,-0.6836,-0.6837,-0.6852,-0.6857,-0.6862,-0.6798,-0.6797,-0.6797,0,0,-0.6751,-0.6753,-0.677,-0.6774,-0.6779,-0.6778,-0.6782,-0.6786,-0.6786,-0.6806,-0.6796,-0.6808,-0.6828,-0.6834,-0.684,-0.6877,-0.6869,-0.6881,-0.6902,-0.6918,-0.6922,-0.6926,-0.6941,-0.6946,-0.6884,-0.6884,-0.6884,0,-0.6768,-0.6787,-0.678,-0.6795,-0.6801,-0.6789,-0.6807,-0.6811,-0.6821,-0.6826,-0.6816,-0.6842,-0.6846,-0.6872,-0.6881,-0.6886,-0.6891,-0.688,-0.6922,-0.6926,-0.693,-0.6944,-0.6949,-0.6885,-0.6885,-0.6885,-0.6885,0,-0.6809,-0.6822,-0.6836,-0.6845,-0.6852,-0.6869,-0.6866,-0.6874,-0.6869,-0.6869,-0.689,-0.6894,-0.6906,-0.6912,-0.6908,-0.6938,-0.6933,-0.6923,-0.6906,-0.6937,-0.695,-0.6955,-0.6887,-0.6887,-0.6887,-0.6886,0,0,-0.6856,-0.6861,-0.6866,-0.6871,-0.6877,-0.6887,-0.6904,-0.6915,-0.6923,-0.693,-0.6945,-0.6963,-0.6955,-0.6961,-0.6957,-0.6971,-0.7002,-0.6959,-0.6959,-0.6968,-0.7037,-0.7045,-0.7051,-0.6996,-0.6997,-0.6998,-0.7037,0,-0.689,-0.6918,-0.6913,-0.6941,-0.6954,-0.6943,-0.6958,-0.6963,-0.6964,-0.6976,-0.6976,-0.699,-0.6976,-0.698,-0.6993,-0.6995,-0.7016,-0.6992,-0.7011,-0.7012,-0.701,-0.7058,-0.7066,-0.7102,-0.7042,-0.7043,-0.7043,0,-0.6934,-0.6942,-0.6971,-0.6976,-0.6981,-0.6995,-0.7006,-0.7016,-0.7023,-0.7023,-0.7031,-0.7025,-0.7043,-0.7026,-0.7051,-0.7036,-0.7043,-0.7046,-0.7047,-0.7049,-0.703,-0.7062,-0.7113,-0.7119,-0.7051,-0.705,-0.705,0,-0.6967,-0.6985,-0.7005,-0.7009,-0.7015,-0.7025,-0.7028,-0.7034,-0.7042,-0.7051,-0.7057,-0.7069,-0.7075,-0.7085,-0.7084,-0.7071,-0.711,-0.7093,-0.7112,-0.7112,-0.712,-0.712,-0.7175,-0.7124,-0.7124,-0.7124,-0.7124,0,-0.7006,-0.7024,-0.702,-0.7032,-0.7053,-0.7048,-0.7069,-0.7071,-0.7076,-0.709,-0.7081,-0.7094,-0.7091,-0.7104,-0.7103,-0.7125,-0.7128,-0.7129,-0.7129,-0.713,-0.713,-0.7135,-0.7133,-0.7126,-0.7125,-0.7125,-0.7125,0,-0.7046,-0.7043,-0.7065,-0.7069,-0.707,-0.7085,-0.7089,-0.7102,-0.7101,-0.7119,-0.7123,-0.7123,-0.7139,-0.7137,-0.7155,-0.7154,-0.7182,-0.7178,-0.718,-0.7179,-0.7198,-0.7197,-0.7259,-0.7267,-0.7211,-0.7211,-0.7212,0,-0.7071,-0.7085,-0.7091,-0.7099,-0.7102,-0.7115,-0.7123,-0.7119,-0.7128,-0.7137,-0.7149,-0.7163,-0.7175,-0.72,-0.7203,-0.7217,-0.7214,-0.7234,-0.7216,-0.7217,-0.7215,-0.7215,-0.7217,-0.7238,-0.7239,-0.7239,-0.724,0,-0.7118,-0.7116,-0.7127,-0.7138,-0.7147,-0.7156,-0.7164,-0.7171,-0.7168,-0.7178,-0.7194,-0.7203,-0.7221,-0.7236,-0.7249,-0.7253,-0.7247,-0.7246,-0.7251,-0.7253,-0.7254,-0.7255,-0.719,-0.7244,-0.7244,-0.7244,-0.7243,-0.7243,-0.7152,-0.7164,-0.717,-0.7183,-0.7188,-0.7196,-0.7208,-0.721,-0.7222,-0.7236,-0.7233,-0.725,-0.7259,-0.7276,-0.7281,-0.7296,-0.7289,-0.7296,-0.7298,-0.73,-0.7303,-0.7251,-0.7298,-0.7298,-0.7298,-0.7298,-0.7298,0,-0.7198,-0.7202,-0.7214,-0.7225,-0.7235,-0.7227,-0.7236,-0.7246,-0.7261,-0.7269,-0.728,-0.7298,-0.7313,-0.7317,-0.7332,-0.7343,-0.734,-0.7347,-0.7347,-0.7348,-0.7308,-0.7302,-0.7349,-0.7349,-0.7349,-0.7349,-0.7349,-0.7349,-0.7224,-0.7245,-0.7244,-0.7268,-0.7271,-0.7288,-0.7293,-0.7301,-0.7307,-0.7328,-0.734,-0.7342,-0.7349,-0.7364,-0.7378,-0.7379,-0.7385,-0.7393,-0.7393,-0.7356,-0.7351,-0.7346,-0.734,-0.7394,-0.7394,-0.7432,-0.7432,-0.7432]},{"header":{"parameterUnit":"m.s-1","parameterCategory":1,"la1":30.2991,"la2":30.254,"lo1":-89.0895,"lo2":-89.0444,"dy":0.0017,"dx":0.0017,"nx":28,"ny":28,"refTime":"2025-09-04T03:00:00:Z","depth":0,"parameterNumber":3,"parameterNumberName":"V-component_of_WINDS"},"data":[0,0,0,0,0,0,0,0,0,0,0,0,0,0,0,0,0,0,0,0,0,0,0,0,0,0,0,0,0,0,0,0,0,0,0,0,0,0,0,0,0,0,0,0,0,0,0,0,0,0,0,0,0,0,0,0,0,0,3.0613,3.0612,0,3.0598,3.0598,3.0598,3.0594,3.0594,3.0594,3.0594,3.0577,3.0576,3.0576,0,0,0,0,0,0,0,0,0,0,0,0,0,3.0635,3.0634,3.0613,3.0612,3.0612,3.0598,3.0598,3.0598,3.0594,3.0594,3.0594,3.0594,3.0577,3.0576,3.0576,0,0,0,0,0,0,0,0,0,0,0,0,0,3.0623,3.0634,3.0613,3.0609,3.0608,3.0598,3.0598,3.0598,3.0594,3.0594,3.0594,3.0594,3.0577,3.0576,3.0576,3.0568,0,0,3.0573,3.0573,0,0,0,0,0,0,0,0,3.0624,3.0622,3.0609,3.0609,3.0608,3.0598,3.0599,3.0587,3.0594,3.0599,3.0594,3.0594,3.0584,3.0582,3.0579,3.0567,3.0566,3.0573,3.0573,3.0572,3.0572,0,0,0,0,0,0,0,3.0625,3.0623,3.0607,3.0609,3.0609,3.0607,3.0605,3.0597,3.0591,3.0599,3.0598,3.0597,3.0583,3.058,3.0579,3.0566,3.0573,3.0572,3.0572,3.0572,3.0546,3.0546,0,0,0,0,0,0,3.0626,3.0624,3.0607,3.0606,3.0617,3.0606,3.0605,3.0601,3.0591,3.0589,3.0597,3.0597,3.0581,3.058,3.0578,3.0568,3.0572,3.0571,3.0571,3.0546,3.0546,3.0546,0,0,0,0,0,0,3.0627,3.0625,3.0608,3.0615,3.0613,3.0606,3.0602,3.0601,3.0597,3.0589,3.0588,3.0595,3.0581,3.0579,3.057,3.0567,3.0571,3.057,3.0546,3.0546,3.0546,3.0547,0,0,0,0,0,0,3.0628,3.0625,3.0623,3.0615,3.0612,3.0601,3.0602,3.06,3.0596,3.0596,3.0587,3.0586,3.0581,3.0572,3.057,3.0566,3.057,3.0547,3.0546,3.0546,3.0548,3.0547,3.0547,0,0,0,0,0,3.0628,3.0623,3.0623,3.0621,3.0609,3.0601,3.0599,3.0595,3.0596,3.0593,3.0588,3.0586,3.0568,3.0571,3.0568,3.0565,3.0547,3.0546,3.0546,3.0548,3.0547,3.0547,0,0,0,0,0,0,3.063,3.0622,3.0621,3.0614,3.0608,3.06,3.0596,3.0595,3.0588,3.0588,3.0583,3.0581,3.0572,3.0567,3.0571,3.0556,3.0557,3.0556,3.0559,3.0559,3.0559,3.056,3.0569,0,0,0,0,0,3.063,3.0625,3.0618,3.0612,3.0609,3.0603,3.0599,3.0597,3.059,3.0588,3.0582,3.0575,3.0568,3.0563,3.0556,3.0547,3.0545,3.0543,3.0543,3.0543,3.0542,3.0536,3.0535,3.0544,3.0544,3.0544,0,0,3.0629,3.0624,3.0621,3.0612,3.0607,3.0601,3.0601,3.0595,3.059,3.0587,3.0578,3.0573,3.0565,3.0556,3.0552,3.0552,3.0539,3.0542,3.0542,3.0541,3.0535,3.0535,3.0534,3.0544,3.0544,3.0544,0,0,3.0624,3.062,3.0614,3.061,3.0603,3.0599,3.0598,3.059,3.0587,3.0579,3.0576,3.057,3.0557,3.0552,3.0547,3.054,3.0538,3.0538,3.0536,3.053,3.053,3.0529,3.0526,3.0525,3.0537,3.0537,3.0537,0,3.0623,3.0615,3.0611,3.0605,3.0601,3.0598,3.0592,3.0588,3.0578,3.0575,3.0576,3.0561,3.0555,3.0544,3.0543,3.0539,3.0537,3.0539,3.053,3.0529,3.0529,3.0526,3.0524,3.0537,3.0537,3.0537,3.0537,0,3.0614,3.0608,3.0604,3.0596,3.0592,3.0585,3.058,3.0576,3.0574,3.057,3.0561,3.0554,3.0545,3.0543,3.054,3.0531,3.0532,3.0531,3.0532,3.0528,3.0525,3.0524,3.0537,3.0537,3.0537,3.0537,0,0,3.0609,3.06,3.0598,3.0594,3.0587,3.0582,3.0575,3.0567,3.0564,3.0557,3.0551,3.0541,3.0541,3.0535,3.0532,3.0527,3.0521,3.0527,3.0527,3.0526,3.0511,3.0511,3.0509,3.052,3.052,3.052,3.0511,0,3.0603,3.0592,3.0588,3.0579,3.0573,3.057,3.0565,3.0559,3.0555,3.0549,3.0544,3.0537,3.0537,3.0534,3.0529,3.0523,3.0518,3.0524,3.0513,3.0513,3.0515,3.0508,3.0508,3.05,3.051,3.051,3.051,0,3.0594,3.0588,3.0578,3.0571,3.0568,3.0563,3.0556,3.055,3.0543,3.0541,3.0535,3.0532,3.0524,3.0526,3.0515,3.0519,3.0514,3.0511,3.051,3.0509,3.0511,3.0506,3.0498,3.0496,3.0508,3.0508,3.0508,0,3.0591,3.0581,3.0573,3.057,3.0562,3.0558,3.0554,3.0548,3.0543,3.0536,3.0533,3.0525,3.0521,3.0514,3.0509,3.0511,3.0498,3.0499,3.0495,3.0495,3.0492,3.0492,3.0483,3.049,3.049,3.049,3.049,0,3.0584,3.0578,3.0572,3.0567,3.056,3.0556,3.0549,3.0545,3.0539,3.0533,3.053,3.0524,3.0518,3.0511,3.0507,3.0497,3.0495,3.0492,3.0491,3.0492,3.0493,3.0489,3.0489,3.049,3.049,3.049,3.049,0,3.0579,3.0575,3.0567,3.056,3.0558,3.0553,3.0546,3.0541,3.0537,3.0529,3.0527,3.0521,3.0512,3.0507,3.0496,3.0493,3.0483,3.0482,3.0485,3.0485,3.048,3.0481,3.0468,3.0465,3.0475,3.0475,3.0475,0,3.0574,3.057,3.0562,3.0558,3.0555,3.0549,3.0544,3.054,3.0535,3.0527,3.0523,3.0514,3.0507,3.0494,3.0488,3.0479,3.0478,3.0474,3.0477,3.0478,3.0477,3.0477,3.0476,3.0473,3.0473,3.0473,3.0473,0,3.0567,3.0565,3.0559,3.0552,3.0547,3.0542,3.0536,3.0533,3.0527,3.0522,3.0514,3.0509,3.0498,3.0489,3.048,3.0475,3.0473,3.0473,3.0471,3.0472,3.0474,3.0472,3.0484,3.0473,3.0473,3.0473,3.0473,3.0473,3.0561,3.0557,3.0551,3.0544,3.054,3.0535,3.0529,3.0525,3.0519,3.051,3.0508,3.0499,3.0492,3.0479,3.0474,3.0467,3.0467,3.0465,3.0464,3.0464,3.0463,3.0475,3.0465,3.0465,3.0465,3.0465,3.0465,0,3.0553,3.0549,3.0543,3.0536,3.053,3.053,3.0523,3.0518,3.0511,3.0505,3.0498,3.0489,3.048,3.0473,3.0465,3.046,3.0459,3.0458,3.0458,3.0456,3.0464,3.0466,3.0459,3.0459,3.0459,3.0459,3.0459,3.0459,3.0548,3.054,3.0538,3.0528,3.0524,3.0516,3.0512,3.0507,3.0502,3.0491,3.0485,3.0481,3.0474,3.0465,3.0457,3.0455,3.0451,3.0451,3.0448,3.0455,3.0456,3.0457,3.0458,3.045,3.045,3.0441,3.0441,3.0441]}]]